Résultats

Trail National des Sapeurs Pompiers:32KM - Open. Édition 2018.

32 Km
19/05/2018 à 08:00:00 - GEMENOS (13)
29 arrivant(e)s.





Place▲ Temps Dossard Nom Prenom Categ #Categ Sexe #Sexe Club Vit Moy Diplôme Photo Partager
1 03:54:31 118 BADER CLEMENT SEM 1 M 1 DUNES D'ESPOIR 8.19
2 03:57:47 155 VAXILLAIRE YANN M1M 1 M 2 8.07
3 03:58:15 128 DESCHAMPS JULIEN M1M 2 M 3 TEAM FOULEE AUBAGNE 8.06
4 04:19:01 148 RAYNAUD PATRICK-CHRISTOPHE M2M 1 M 4 7.41
5 04:21:46 143 MONGOIN FLORIAN SEM 2 M 5 DA FOUF WARRIORS 7.33
6 04:22:19 145 PAGEON PIERRE SEM 3 M 6 TEAM RAIDLIGHT PACA 7.32
7 04:35:21 140 MACCOTTA LAURENT M1M 3 M 7 6.97
8 04:37:50 136 LACHAIZE OLIVIER M1M 4 M 8 6.91
9 04:39:39 154 VANDEWALLE NICOLAS SEM 4 M 9 6.87
10 04:43:50 117 AMALRIC SEBASTIEN M1M 5 M 10 6.76
11 04:49:43 146 PAOLI JEAN-JACQUES M2M 2 M 11 LE PASSE MONTAGNE BEDOIN 6.63
12 04:54:55 135 LABERTRANDIE MATHIEU SEM 5 M 12 SDIS-013-BOUCHES DU RHONE 6.51
13 04:56:14 120 BOUILLET MAX SEM 6 M 13 6.48
14 05:10:58 156 POROT CEDRIC M1M 6 M 14 6.17
15 05:11:06 153 VANCAYZEELE SANDRA SEF 1 F 1 LISSES AC 6.17
16 05:12:51 150 SAUNIER LAURENT M1M 7 M 15 OLYMPIQUE CABRIES CALAS 6.14
17 05:14:41 126 DEMARLE ISABELLE M1F 1 F 2 ATHELIC BERRE CLUB 6.10
18 05:31:56 147 N:Anonyme 147 P:Anonyme 147 SEM 7 M 16 UDSP40 5.78
19 05:34:50 130 DROMENQ LAURENT M1M 8 M 17 5.73
20 05:36:00 132 GIBERTI AURELIEN SEM 8 M 18 I FILANCI 5.71
21 05:44:32 123 CIPOLLA THIERRY M2M 3 M 19 5.57
22 05:50:01 124 DAUDET FRANCK M1F 2 F 3 SAPEUR POMPIER ALES 5.49
23 06:02:45 134 IVALDI MARIE-CHARLOTTE SEF 2 F 4 TRAIL CLUB DES FOUS 5.29
24 06:12:00 151 TUNNO MARC M2M 4 M 20 ROGNAC ATHLETIC CLUB 5.16
25 07:14:14 149 SANCHEZ ANTONIO M2M 5 M 21 POMPIERS DE L'ESPOIR 4.42
26 07:22:28 125 DELLA-CASA MIRIAME M2F 1 F 5 4.34
27 07:24:43 129 DESGEORGE ERIC M2M 6 M 22 TTCB/TUNING EVADION 4.32
28 08:05:14 138 LE-GALL JOEL M2M 7 M 23 BRIGADE DES BIRETTES:SAPEURS POMPIERS DU CHER 3.96
29 08:05:14 137 LE-GALL DANIELLE M1F 3 F 6 BRIGADE DES BIRETTES:SAPEURS POMPIERS DU CHER 3.96